Time,TemperatureF,DewpointF,PressureIn,WindDirection,WindDirectionDegrees,WindSpeedMPH,WindSpeedGustMPH,Humidity,HourlyPrecipIn,Conditions,Clouds,dailyrainin,SoftwareType,DateUTC
2013-09-11 00:04:00,64.6,64.6,29.97,ESE,115,1.6,3.4,100,0.00,,,0.00,WSDL version 420,2013-09-11 04:04:00,
2013-09-11 00:09:00,64.8,64.8,29.97,East,79,1.9,3.4,100,0.00,,,0.00,WSDL version 420,2013-09-11 04:09:00,
2013-09-11 00:14:00,64.9,64.9,29.97,ENE,74,1.5,3.6,100,0.00,,,0.00,WSDL version 420,2013-09-11 04:14:00,
2013-09-11 00:19:00,64.5,64.5,29.97,ENE,71,0.3,3.6,100,0.00,,,0.00,WSDL version 420,2013-09-11 04:19:00,
2013-09-11 00:24:00,64.3,64.3,29.97,NW,315,0.4,3.8,100,0.00,,,0.00,WSDL version 420,2013-09-11 04:24:00,
2013-09-11 00:29:00,64.0,63.9,29.97,NW,305,0.0,3.8,100,0.00,,,0.00,WSDL version 420,2013-09-11 04:29:00,
2013-09-11 00:34:00,63.8,63.8,29.97,East,90,2.3,4.0,100,0.00,,,0.00,WSDL version 420,2013-09-11 04:34:00,
2013-09-11 00:39:00,64.0,64.0,29.97,East,90,1.5,4.0,100,0.00,,,0.00,WSDL version 420,2013-09-11 04:39:00,
2013-09-11 00:44:00,64.0,64.0,29.97,ENE,68,1.5,3.4,100,0.00,,,0.00,WSDL version 420,2013-09-11 04:44:00,
2013-09-11 00:49:00,64.1,64.1,29.97,NNE,25,1.8,3.4,100,0.00,,,0.00,WSDL version 420,2013-09-11 04:49:00,
2013-09-11 00:54:00,64.2,64.2,29.97,ENE,65,0.8,3.1,100,0.00,,,0.00,WSDL version 420,2013-09-11 04:54:00,
2013-09-11 00:59:00,64.0,64.0,29.97,East,80,0.0,2.9,100,0.00,,,0.00,WSDL version 420,2013-09-11 04:59:00,
2013-09-11 01:04:00,64.0,63.9,29.97,ESE,106,1.8,3.1,100,0.00,,,0.00,WSDL version 420,2013-09-11 05:04:00,
2013-09-11 01:09:00,63.9,63.9,29.97,SSW,203,0.0,3.1,100,0.00,,,0.00,WSDL version 420,2013-09-11 05:09:00,
2013-09-11 01:14:00,64.1,64.1,29.97,SE,135,1.2,3.1,100,0.00,,,0.00,WSDL version 420,2013-09-11 05:14:00,
2013-09-11 01:19:00,64.2,64.2,29.94,SE,141,1.4,3.4,100,0.00,,,0.00,WSDL version 420,2013-09-11 05:19:00,
2013-09-11 01:26:00,64.6,64.6,29.94,East,96,1.7,3.4,100,0.00,,,0.00,WSDL version 420,2013-09-11 05:26:00,
2013-09-11 01:31:00,64.8,64.8,29.97,East,101,1.3,3.1,100,0.00,,,0.00,WSDL version 420,2013-09-11 05:31:00,
2013-09-11 01:36:00,64.8,64.8,29.97,East,95,2.3,5.8,100,0.00,,,0.00,WSDL version 420,2013-09-11 05:36:00,
2013-09-11 01:41:00,64.9,64.9,29.97,East,84,0.3,5.8,100,-99.99,,,-99.99,WSDL version 420,2013-09-11 05:41:00,
2013-09-11 01:46:00,65.0,65.0,29.97,SE,141,2.5,4.3,100,0.00,,,0.00,WSDL version 420,2013-09-11 05:46:00,
2013-09-11 01:51:00,65.2,65.2,29.97,SE,129,2.4,4.3,100,0.00,,,0.00,WSDL version 420,2013-09-11 05:51:00,
2013-09-11 01:56:00,65.5,65.5,29.97,SSW,206,2.2,4.9,100,0.00,,,0.00,WSDL version 420,2013-09-11 05:56:00,
2013-09-11 02:01:00,65.7,65.7,29.97,ESE,119,1.3,4.9,100,0.00,,,0.00,WSDL version 420,2013-09-11 06:01:00,
2013-09-11 02:06:00,65.7,65.7,29.97,NW,315,0.8,2.9,100,0.00,,,0.00,WSDL version 420,2013-09-11 06:06:00,
2013-09-11 02:11:00,65.6,65.6,29.97,WSW,242,1.1,2.7,100,0.00,,,0.00,WSDL version 420,2013-09-11 06:11:00,
2013-09-11 02:16:00,65.6,65.6,29.94,NNW,338,0.7,3.1,100,0.00,,,0.00,WSDL version 420,2013-09-11 06:16:00,
2013-09-11 02:21:00,65.6,65.6,29.94,East,84,0.5,3.6,100,0.00,,,0.00,WSDL version 420,2013-09-11 06:21:00,
2013-09-11 02:26:00,65.4,65.4,29.94,SSW,209,1.3,3.6,100,0.00,,,0.00,WSDL version 420,2013-09-11 06:26:00,
2013-09-11 02:31:00,65.5,65.5,29.97,SSE,148,3.0,3.8,100,0.00,,,0.00,WSDL version 420,2013-09-11 06:31:00,
2013-09-11 02:36:00,65.8,65.8,29.97,SE,143,2.8,5.8,100,0.00,,,0.00,WSDL version 420,2013-09-11 06:36:00,
2013-09-11 02:41:00,66.2,66.2,29.97,ENE,74,2.3,5.8,100,-99.99,,,-99.99,WSDL version 420,2013-09-11 06:41:00,
2013-09-11 02:46:00,66.2,66.2,29.97,SSW,212,2.2,4.9,100,0.00,,,0.00,WSDL version 420,2013-09-11 06:46:00,
2013-09-11 02:51:00,66.4,66.4,29.97,SE,143,2.4,4.9,100,0.00,,,0.00,WSDL version 420,2013-09-11 06:51:00,
2013-09-11 02:56:00,66.3,66.3,29.97,West,262,0.6,4.0,100,0.00,,,0.00,WSDL version 420,2013-09-11 06:56:00,
2013-09-11 03:01:00,66.2,66.2,29.97,NNW,333,1.1,2.5,100,0.00,,,0.00,WSDL version 420,2013-09-11 07:01:00,
2013-09-11 03:06:00,66.0,66.0,29.97,South,173,1.3,4.0,100,0.00,,,0.00,WSDL version 420,2013-09-11 07:06:00,
2013-09-11 03:11:00,66.2,66.2,29.97,SW,225,2.9,5.6,100,0.00,,,0.00,WSDL version 420,2013-09-11 07:11:00,
2013-09-11 03:16:00,66.4,66.4,29.97,WSW,256,3.0,5.6,100,0.00,,,0.00,WSDL version 420,2013-09-11 07:16:00,
2013-09-11 03:21:00,66.4,66.4,29.97,West,259,2.2,5.8,100,0.00,,,0.00,WSDL version 420,2013-09-11 07:21:00,
2013-09-11 03:26:00,66.4,66.4,29.97,NNW,338,0.6,5.8,100,0.00,,,0.00,WSDL version 420,2013-09-11 07:26:00,
2013-09-11 03:31:00,66.5,66.5,29.97,NW,304,1.8,3.8,100,0.00,,,0.00,WSDL version 420,2013-09-11 07:31:00,
2013-09-11 03:36:00,66.2,66.2,29.97,SW,225,0.0,3.4,100,0.00,,,0.00,WSDL version 420,2013-09-11 07:36:00,
2013-09-11 03:41:00,66.0,66.0,29.97,NE,42,1.9,2.7,100,-99.99,,,-99.99,WSDL version 420,2013-09-11 07:41:00,
2013-09-11 03:46:00,66.2,66.2,29.97,NE,41,1.4,2.9,100,0.00,,,0.00,WSDL version 420,2013-09-11 07:46:00,
2013-09-11 03:51:00,66.1,66.1,29.97,SE,135,0.7,2.9,100,0.00,,,0.00,WSDL version 420,2013-09-11 07:51:00,
2013-09-11 03:56:00,66.0,66.0,29.97,ENE,68,1.5,2.2,100,0.00,,,0.00,WSDL version 420,2013-09-11 07:56:00,
2013-09-11 04:01:00,66.0,66.0,29.97,ENE,68,0.0,2.2,100,0.00,,,0.00,WSDL version 420,2013-09-11 08:01:00,
2013-09-11 04:06:00,65.9,65.9,29.97,East,87,1.0,1.6,100,0.00,,,0.00,WSDL version 420,2013-09-11 08:06:00,
2013-09-11 04:11:00,66.1,66.1,29.97,East,90,0.8,3.8,100,0.00,,,0.00,WSDL version 420,2013-09-11 08:11:00,
2013-09-11 04:16:00,66.3,66.3,29.94,East,90,0.2,3.8,100,0.00,,,0.00,WSDL version 420,2013-09-11 08:16:00,
2013-09-11 04:21:00,66.4,66.4,29.94,ENE,68,0.9,3.1,100,0.00,,,0.00,WSDL version 420,2013-09-11 08:21:00,
2013-09-11 04:26:00,66.4,66.4,29.94,East,87,0.5,3.4,100,0.00,,,0.00,WSDL version 420,2013-09-11 08:26:00,
2013-09-11 04:31:00,66.6,66.6,29.94,East,90,1.0,3.4,100,0.00,,,0.00,WSDL version 420,2013-09-11 08:31:00,
2013-09-11 04:36:00,66.6,66.6,29.94,East,79,1.2,3.8,100,0.00,,,0.00,WSDL version 420,2013-09-11 08:36:00,
2013-09-11 04:41:00,66.6,66.6,29.94,East,95,1.7,3.8,100,0.00,,,0.00,WSDL version 420,2013-09-11 08:41:00,
2013-09-11 04:46:00,66.4,66.4,29.94,ENE,68,1.2,3.8,100,0.00,,,0.00,WSDL version 420,2013-09-11 08:46:00,
2013-09-11 04:51:00,66.1,66.1,29.94,ENE,77,0.7,2.7,100,0.00,,,0.00,WSDL version 420,2013-09-11 08:51:00,
2013-09-11 04:56:00,66.0,66.0,29.94,East,87,1.6,2.5,100,0.00,,,0.00,WSDL version 420,2013-09-11 08:56:00,
2013-09-11 05:03:00,66.2,66.2,29.97,East,87,0.1,2.5,100,0.00,,,0.00,WSDL version 420,2013-09-11 09:03:00,
2013-09-11 05:08:00,66.1,66.1,29.97,SE,138,0.8,2.2,100,0.00,,,0.00,WSDL version 420,2013-09-11 09:08:00,
2013-09-11 05:13:00,66.0,66.0,29.97,East,87,0.4,2.5,100,0.00,,,0.00,WSDL version 420,2013-09-11 09:13:00,
2013-09-11 05:18:00,66.0,66.0,29.97,NE,51,1.7,3.1,100,0.00,,,0.00,WSDL version 420,2013-09-11 09:18:00,
2013-09-11 05:23:00,66.2,66.2,29.97,East,88,0.5,5.6,100,0.00,,,0.00,WSDL version 420,2013-09-11 09:23:00,
2013-09-11 05:28:00,66.2,66.2,29.97,South,180,2.3,5.6,100,0.00,,,0.00,WSDL version 420,2013-09-11 09:28:00,
2013-09-11 05:33:00,66.4,66.4,29.94,East,96,0.1,4.9,100,-99.99,,,-99.99,WSDL version 420,2013-09-11 09:33:00,
2013-09-11 05:39:00,66.6,66.6,29.94,ENE,58,2.3,4.3,100,-99.99,,,-99.99,WSDL version 420,2013-09-11 09:39:00,
2013-09-11 05:44:00,66.6,66.6,29.94,South,170,1.2,4.3,100,0.00,,,0.00,WSDL version 420,2013-09-11 09:44:00,
2013-09-11 05:49:00,66.7,66.7,29.97,SSE,148,1.5,4.3,100,0.00,,,0.00,WSDL version 420,2013-09-11 09:49:00,
2013-09-11 05:54:00,66.7,66.6,29.97,ENE,59,0.8,5.8,100,-99.99,,,-99.99,WSDL version 420,2013-09-11 09:54:00,
2013-09-11 05:59:00,66.7,66.7,29.97,North,356,1.2,5.8,100,0.00,,,0.00,WSDL version 420,2013-09-11 09:59:00,
2013-09-11 06:09:00,66.7,66.7,29.94,East,83,1.3,2.7,100,0.00,,,0.00,WSDL version 420,2013-09-11 10:09:00,
2013-09-11 06:14:00,66.8,66.8,29.94,ESE,104,3.6,4.5,100,0.00,,,0.00,WSDL version 420,2013-09-11 10:14:00,
2013-09-11 06:19:00,66.7,66.7,29.97,East,98,2.7,5.6,100,0.00,,,0.00,WSDL version 420,2013-09-11 10:19:00,
2013-09-11 06:24:00,66.8,66.8,29.97,ESE,108,2.1,5.6,100,0.00,,,0.00,WSDL version 420,2013-09-11 10:24:00,
2013-09-11 06:29:00,66.9,66.9,29.97,East,79,2.7,4.3,100,0.00,,,0.00,WSDL version 420,2013-09-11 10:29:00,
2013-09-11 06:34:00,66.9,66.9,29.97,ESE,109,2.1,4.3,100,0.00,,,0.00,WSDL version 420,2013-09-11 10:34:00,
2013-09-11 06:39:00,66.9,66.9,29.97,NNE,30,2.9,5.4,100,0.00,,,0.00,WSDL version 420,2013-09-11 10:39:00,
2013-09-11 06:53:00,67.1,67.1,29.97,SE,145,1.3,3.1,100,0.00,,,0.00,WSDL version 420,2013-09-11 10:53:00,
2013-09-11 07:03:00,67.3,67.3,29.97,East,80,2.9,5.6,100,0.00,,,0.00,WSDL version 420,2013-09-11 11:03:00,
2013-09-11 07:08:00,67.3,67.3,29.97,ESE,105,2.0,5.6,100,0.00,,,0.00,WSDL version 420,2013-09-11 11:08:00,
2013-09-11 07:13:00,67.4,67.4,29.97,ESE,118,1.8,5.6,100,0.00,,,0.00,WSDL version 420,2013-09-11 11:13:00,
2013-09-11 07:18:00,67.5,67.5,30.00,ESE,106,3.6,7.2,100,0.00,,,0.00,WSDL version 420,2013-09-11 11:18:00,
2013-09-11 07:23:00,67.6,67.6,30.00,East,90,2.2,7.2,100,0.00,,,0.00,WSDL version 420,2013-09-11 11:23:00,
2013-09-11 07:28:00,67.8,67.8,30.00,South,173,2.3,6.3,100,0.00,,,0.00,WSDL version 420,2013-09-11 11:28:00,
2013-09-11 07:33:00,67.8,67.8,29.97,SE,146,3.2,6.5,100,0.00,,,0.00,WSDL version 420,2013-09-11 11:33:00,
2013-09-11 07:40:00,67.8,67.8,29.97,SE,139,3.2,4.9,100,0.00,,,0.00,WSDL version 420,2013-09-11 11:40:00,
2013-09-11 07:45:00,68.0,68.0,29.97,South,169,3.0,8.7,100,0.00,,,0.00,WSDL version 420,2013-09-11 11:45:00,
2013-09-11 07:50:00,68.0,68.0,29.97,South,191,2.4,8.7,100,0.00,,,0.00,WSDL version 420,2013-09-11 11:50:00,
2013-09-11 07:55:00,68.0,68.0,29.97,SSE,154,2.5,5.8,100,-99.99,,,-99.99,WSDL version 420,2013-09-11 11:55:00,
2013-09-11 08:00:00,68.2,68.2,29.97,SW,228,1.3,4.7,100,0.00,,,0.00,WSDL version 420,2013-09-11 12:00:00,
2013-09-11 08:05:00,68.4,68.4,29.97,NE,56,2.7,6.0,100,0.00,,,0.00,WSDL version 420,2013-09-11 12:05:00,
2013-09-11 08:10:00,68.4,68.4,29.97,SW,231,3.5,6.0,100,0.00,,,0.00,WSDL version 420,2013-09-11 12:10:00,
2013-09-11 08:15:00,68.5,68.5,29.97,ESE,103,3.2,5.8,100,0.00,,,0.00,WSDL version 420,2013-09-11 12:15:00,
2013-09-11 08:20:00,68.5,68.5,29.97,SSE,167,3.4,8.5,100,0.00,,,0.00,WSDL version 420,2013-09-11 12:20:00,
2013-09-11 08:25:00,68.7,68.7,29.97,South,173,3.1,8.5,100,0.00,,,0.00,WSDL version 420,2013-09-11 12:25:00,
2013-09-11 08:30:00,69.0,69.0,29.97,SSE,148,2.6,6.5,100,0.00,,,0.00,WSDL version 420,2013-09-11 12:30:00,
2013-09-11 08:35:00,69.2,69.2,29.97,SE,128,3.2,7.8,100,0.00,,,0.00,WSDL version 420,2013-09-11 12:35:00,
2013-09-11 08:40:00,69.4,69.3,29.97,East,101,5.2,11.0,100,-99.99,,,-99.99,WSDL version 420,2013-09-11 12:40:00,
2013-09-11 08:45:00,69.6,69.6,29.97,North,8,3.8,11.0,100,0.00,,,0.00,WSDL version 420,2013-09-11 12:45:00,
2013-09-11 08:50:00,69.7,69.7,29.97,ESE,115,3.4,6.5,100,0.00,,,0.00,WSDL version 420,2013-09-11 12:50:00,
2013-09-11 08:55:00,69.9,69.9,29.97,SSE,150,4.4,6.9,100,0.00,,,0.00,WSDL version 420,2013-09-11 12:55:00,
2013-09-11 09:00:00,70.3,70.3,29.97,East,84,3.4,6.9,100,0.00,,,0.00,WSDL version 420,2013-09-11 13:00:00,
2013-09-11 09:05:00,70.7,70.7,29.97,South,180,3.3,9.8,100,-99.99,,,-99.99,WSDL version 420,2013-09-11 13:05:00,
2013-09-11 09:10:00,71.0,71.0,29.97,South,169,3.0,9.8,100,0.00,,,0.00,WSDL version 420,2013-09-11 13:10:00,
2013-09-11 09:15:00,71.3,71.3,29.97,SW,215,3.5,10.1,100,0.00,,,0.00,WSDL version 420,2013-09-11 13:15:00,
2013-09-11 09:20:00,71.7,71.7,29.97,SE,145,3.7,10.1,100,0.00,,,0.00,WSDL version 420,2013-09-11 13:20:00,
2013-09-11 09:25:00,72.1,72.1,29.97,East,87,4.0,8.5,100,0.00,,,0.00,WSDL version 420,2013-09-11 13:25:00,
2013-09-11 09:30:00,72.7,72.7,29.97,South,186,3.9,9.6,100,0.00,,,0.00,WSDL version 420,2013-09-11 13:30:00,
2013-09-11 09:35:00,72.9,72.9,29.97,ESE,121,3.1,9.6,100,0.00,,,0.00,WSDL version 420,2013-09-11 13:35:00,
2013-09-11 09:40:00,73.3,73.3,29.97,ESE,106,4.8,10.1,100,-99.99,,,-99.99,WSDL version 420,2013-09-11 13:40:00,
2013-09-11 09:45:00,73.7,73.7,29.97,ENE,63,3.7,10.1,100,0.00,,,0.00,WSDL version 420,2013-09-11 13:45:00,
2013-09-11 09:50:00,73.9,73.9,29.97,East,98,3.2,7.6,100,0.00,,,0.00,WSDL version 420,2013-09-11 13:50:00,
2013-09-11 09:55:00,74.4,73.9,29.97,SE,143,5.8,9.4,98,0.00,,,0.00,WSDL version 420,2013-09-11 13:55:00,
2013-09-11 10:00:00,75.0,74.1,29.97,ENE,77,4.7,9.4,97,0.00,,,0.00,WSDL version 420,2013-09-11 14:00:00,
2013-09-11 10:05:00,75.3,74.0,29.97,East,87,7.1,10.5,94,0.00,,,0.00,WSDL version 420,2013-09-11 14:05:00,
2013-09-11 10:10:00,75.6,73.4,29.97,South,170,4.2,10.5,93,0.00,,,0.00,WSDL version 420,2013-09-11 14:10:00,
2013-09-11 10:15:00,76.0,73.9,29.97,NE,37,3.5,10.1,93,0.00,,,0.00,WSDL version 420,2013-09-11 14:15:00,
2013-09-11 10:20:00,76.3,74.0,29.97,ESE,113,4.3,6.9,92,0.00,,,0.00,WSDL version 420,2013-09-11 14:20:00,
2013-09-11 10:25:00,76.5,73.6,29.97,East,101,4.6,6.9,91,0.00,,,0.00,WSDL version 420,2013-09-11 14:25:00,
2013-09-11 10:30:00,77.0,74.1,29.97,ESE,109,4.5,7.8,90,0.00,,,0.00,WSDL version 420,2013-09-11 14:30:00,
2013-09-11 10:35:00,77.2,73.6,29.97,ENE,62,4.1,9.8,88,0.00,,,0.00,WSDL version 420,2013-09-11 14:35:00,
2013-09-11 10:40:00,77.4,73.8,29.97,East,98,3.2,9.8,89,0.00,,,0.00,WSDL version 420,2013-09-11 14:40:00,
2013-09-11 10:45:00,77.7,73.6,29.97,ESE,116,5.9,10.3,87,0.00,,,0.00,WSDL version 420,2013-09-11 14:45:00,
2013-09-11 10:50:00,77.8,73.1,29.97,East,93,4.6,10.3,86,0.00,,,0.00,WSDL version 420,2013-09-11 14:50:00,
2013-09-11 10:55:00,77.9,72.6,29.97,ESE,103,4.8,7.4,83,0.00,,,0.00,WSDL version 420,2013-09-11 14:55:00,
2013-09-11 11:00:00,78.3,72.8,29.97,SE,146,4.3,8.7,82,0.00,,,0.00,WSDL version 420,2013-09-11 15:00:00,
2013-09-11 11:05:00,78.5,72.7,29.94,SE,124,3.9,8.7,81,-99.99,,,-99.99,WSDL version 420,2013-09-11 15:05:00,
2013-09-11 11:10:00,78.8,72.0,29.94,ESE,106,2.5,8.5,81,0.00,,,0.00,WSDL version 420,2013-09-11 15:10:00,
2013-09-11 11:15:00,79.3,72.9,29.94,NE,56,2.9,8.5,79,0.00,,,0.00,WSDL version 420,2013-09-11 15:15:00,
2013-09-11 11:20:00,79.5,72.6,29.94,ENE,77,3.1,6.3,80,0.00,,,0.00,WSDL version 420,2013-09-11 15:20:00,
2013-09-11 11:25:00,79.8,72.5,29.94,East,84,5.0,7.2,78,-99.99,,,-99.99,WSDL version 420,2013-09-11 15:25:00,
2013-09-11 11:30:00,80.0,72.1,29.94,ESE,105,4.8,8.1,77,0.00,,,0.00,WSDL version 420,2013-09-11 15:30:00,
2013-09-11 11:35:00,80.1,71.3,29.94,ESE,116,4.8,8.5,75,0.00,,,0.00,WSDL version 420,2013-09-11 15:35:00,
2013-09-11 11:40:00,80.2,71.6,29.94,SE,131,3.1,8.5,75,0.00,,,0.00,WSDL version 420,2013-09-11 15:40:00,
2013-09-11 11:45:00,80.4,72.0,29.94,East,90,3.2,7.4,75,0.00,,,0.00,WSDL version 420,2013-09-11 15:45:00,
2013-09-11 11:50:00,80.5,71.3,29.94,SSE,167,3.8,8.1,75,0.00,,,0.00,WSDL version 420,2013-09-11 15:50:00,
2013-09-11 11:55:00,80.4,71.0,29.94,SSE,148,4.7,8.5,73,0.00,,,0.00,WSDL version 420,2013-09-11 15:55:00,
2013-09-11 12:00:00,80.6,71.4,29.94,East,90,3.4,8.5,74,0.00,,,0.00,WSDL version 420,2013-09-11 16:00:00,
2013-09-11 12:05:00,80.8,71.6,29.91,SE,125,4.3,6.3,73,0.00,,,0.00,WSDL version 420,2013-09-11 16:05:00,
2013-09-11 12:10:00,81.0,71.1,29.91,ENE,76,3.6,6.3,72,0.00,,,0.00,WSDL version 420,2013-09-11 16:10:00,
2013-09-11 12:15:00,81.2,72.3,29.91,ESE,115,3.0,6.3,75,0.00,,,0.00,WSDL version 420,2013-09-11 16:15:00,
2013-09-11 12:20:00,81.3,71.9,29.91,ESE,113,5.3,7.8,73,0.00,,,0.00,WSDL version 420,2013-09-11 16:20:00,
2013-09-11 12:25:00,81.2,71.3,29.91,North,9,3.8,7.8,73,0.00,,,0.00,WSDL version 420,2013-09-11 16:25:00,
2013-09-11 12:30:00,81.2,70.9,29.91,West,264,2.9,5.8,71,0.00,,,0.00,WSDL version 420,2013-09-11 16:30:00,
2013-09-11 12:35:00,81.0,70.9,29.91,East,90,2.8,6.3,73,0.00,,,0.00,WSDL version 420,2013-09-11 16:35:00,
2013-09-11 12:40:00,81.1,71.0,29.91,SSE,161,3.8,8.5,72,0.00,,,0.00,WSDL version 420,2013-09-11 16:40:00,
2013-09-11 12:45:00,81.1,70.9,29.91,ESE,103,5.7,8.5,71,0.00,,,0.00,WSDL version 420,2013-09-11 16:45:00,
2013-09-11 12:50:00,81.0,71.1,29.88,East,96,4.6,8.1,72,0.00,,,0.00,WSDL version 420,2013-09-11 16:50:00,
2013-09-11 12:55:00,81.5,71.5,29.88,SSE,161,5.0,8.1,71,0.00,,,0.00,WSDL version 420,2013-09-11 16:55:00,
2013-09-11 13:00:00,81.9,71.6,29.88,East,93,4.0,8.1,71,0.00,,,0.00,WSDL version 420,2013-09-11 17:00:00,
2013-09-11 13:05:00,82.2,71.7,29.91,ESE,116,4.6,8.1,70,0.00,,,0.00,WSDL version 420,2013-09-11 17:05:00,
2013-09-11 13:10:00,82.4,71.2,29.91,ESE,119,5.9,8.1,69,0.00,,,0.00,WSDL version 420,2013-09-11 17:10:00,
2013-09-11 13:15:00,82.8,71.6,29.91,SE,128,2.9,8.1,70,0.00,,,0.00,WSDL version 420,2013-09-11 17:15:00,
2013-09-11 13:20:00,83.1,72.1,29.91,SSE,166,1.8,6.0,70,0.00,,,0.00,WSDL version 420,2013-09-11 17:20:00,
2013-09-11 13:25:00,83.5,72.0,29.91,SE,131,4.2,6.0,68,0.00,,,0.00,WSDL version 420,2013-09-11 17:25:00,
2013-09-11 13:30:00,83.4,70.9,29.91,ESE,115,5.5,10.1,66,-99.99,,,-99.99,WSDL version 420,2013-09-11 17:30:00,
2013-09-11 13:35:00,83.6,70.8,29.91,SSE,158,6.6,10.1,65,0.00,,,0.00,WSDL version 420,2013-09-11 17:35:00,
2013-09-11 13:40:00,83.7,70.6,29.91,ESE,103,5.4,10.1,66,0.00,,,0.00,WSDL version 420,2013-09-11 17:40:00,
2013-09-11 13:45:00,83.8,71.1,29.91,East,90,4.2,10.3,65,0.00,,,0.00,WSDL version 420,2013-09-11 17:45:00,
2013-09-11 13:50:00,84.0,71.0,29.91,SW,225,3.3,10.3,65,0.00,,,0.00,WSDL version 420,2013-09-11 17:50:00,
2013-09-11 13:55:00,84.1,70.5,29.91,ESE,113,4.4,8.7,64,0.00,,,0.00,WSDL version 420,2013-09-11 17:55:00,
2013-09-11 14:00:00,83.8,70.3,29.91,SSW,196,4.9,8.7,63,0.00,,,0.00,WSDL version 420,2013-09-11 18:00:00,
2013-09-11 14:05:00,83.8,70.3,29.91,SSE,158,3.8,8.1,63,0.00,,,0.00,WSDL version 420,2013-09-11 18:05:00,
2013-09-11 14:15:00,84.3,70.8,29.91,ENE,61,5.4,8.1,64,0.00,,,0.00,WSDL version 420,2013-09-11 18:15:00,
2013-09-11 14:20:00,84.1,71.1,29.91,North,360,2.3,8.1,65,0.00,,,0.00,WSDL version 420,2013-09-11 18:20:00,
2013-09-11 14:25:00,84.2,71.2,29.91,North,354,1.5,4.3,65,0.00,,,0.00,WSDL version 420,2013-09-11 18:25:00,
2013-09-11 14:30:00,84.7,71.5,29.91,East,99,5.6,8.7,63,0.00,,,0.00,WSDL version 420,2013-09-11 18:30:00,
2013-09-11 14:40:00,85.5,69.8,29.91,East,81,4.5,11.0,60,0.00,,,0.00,WSDL version 420,2013-09-11 18:40:00,
2013-09-11 14:45:00,85.6,68.0,29.91,East,96,7.1,9.6,55,0.00,,,0.00,WSDL version 420,2013-09-11 18:45:00,
2013-09-11 14:50:00,85.9,66.8,29.91,East,90,4.2,9.6,54,0.00,,,0.00,WSDL version 420,2013-09-11 18:50:00,
2013-09-11 14:55:00,86.1,67.3,29.91,SSE,154,5.8,8.1,50,0.00,,,0.00,WSDL version 420,2013-09-11 18:55:00,
2013-09-11 15:00:00,86.1,66.8,29.91,East,84,3.3,8.1,53,0.00,,,0.00,WSDL version 420,2013-09-11 19:00:00,
2013-09-11 15:05:00,86.2,65.4,29.91,NNE,30,4.4,8.5,49,-99.99,,,-99.99,WSDL version 420,2013-09-11 19:05:00,
2013-09-11 15:10:00,85.9,65.0,29.91,SSE,158,3.1,8.5,51,0.00,,,0.00,WSDL version 420,2013-09-11 19:10:00,
2013-09-11 15:15:00,86.1,66.0,29.91,ESE,105,3.8,8.5,52,0.00,,,0.00,WSDL version 420,2013-09-11 19:15:00,
2013-09-11 15:20:00,86.2,66.7,29.88,SE,127,5.5,9.8,52,0.00,,,0.00,WSDL version 420,2013-09-11 19:20:00,
2013-09-11 15:25:00,86.5,68.1,29.88,East,86,2.8,9.8,57,-99.99,,,-99.99,WSDL version 420,2013-09-11 19:25:00,
2013-09-11 15:30:00,86.1,69.6,29.88,NE,50,2.6,7.8,59,0.00,,,0.00,WSDL version 420,2013-09-11 19:30:00,
2013-09-11 15:35:00,86.1,69.8,29.88,ESE,103,3.1,7.2,57,0.00,,,0.00,WSDL version 420,2013-09-11 19:35:00,
2013-09-11 15:40:00,86.5,68.9,29.88,East,98,3.3,6.5,55,-99.99,,,-99.99,WSDL version 420,2013-09-11 19:40:00,
2013-09-11 15:45:00,85.9,67.6,29.88,SSE,166,4.0,8.7,54,0.00,,,0.00,WSDL version 420,2013-09-11 19:45:00,
2013-09-11 15:50:00,85.4,67.2,29.88,ESE,108,3.8,8.7,55,0.00,,,0.00,WSDL version 420,2013-09-11 19:50:00,
2013-09-11 15:55:00,84.8,67.6,29.88,ESE,103,3.7,7.4,59,-99.99,,,-99.99,WSDL version 420,2013-09-11 19:55:00,
2013-09-11 16:00:00,84.5,69.2,29.88,ENE,71,3.0,6.0,61,0.00,,,0.00,WSDL version 420,2013-09-11 20:00:00,
2013-09-11 16:05:00,84.3,69.7,29.85,SSW,199,2.9,4.9,62,0.00,,,0.00,WSDL version 420,2013-09-11 20:05:00,
2013-09-11 16:10:00,83.6,68.9,29.85,South,173,1.6,4.7,61,0.00,,,0.00,WSDL version 420,2013-09-11 20:10:00,
2013-09-11 16:15:00,82.9,68.4,29.85,ESE,103,2.2,4.7,61,-99.99,,,-99.99,WSDL version 420,2013-09-11 20:15:00,
2013-09-11 16:20:00,82.6,68.0,29.88,South,169,1.7,5.4,62,0.00,,,0.00,WSDL version 420,2013-09-11 20:20:00,
2013-09-11 16:25:00,81.9,67.3,29.88,ESE,105,4.5,8.5,62,0.00,,,0.00,WSDL version 420,2013-09-11 20:25:00,
2013-09-11 16:30:00,80.5,67.4,29.88,ESE,113,7.2,8.5,66,0.04,,,0.04,WSDL version 420,2013-09-11 20:30:00,
2013-09-11 17:13:00,70.7,68.3,29.85,ESE,120,6.9,6.9,92,0.33,,,0.33,WSDL version 420,2013-09-11 21:13:00,
2013-09-11 17:23:00,70.2,68.1,29.85,SSW,207,2.6,4.9,93,0.33,,,0.33,WSDL version 420,2013-09-11 21:23:00,
2013-09-11 17:28:00,70.1,68.1,29.85,WSW,254,2.1,4.3,93,-99.99,,,-99.99,WSDL version 420,2013-09-11 21:28:00,
2013-09-11 17:33:00,70.0,68.0,29.85,West,270,2.9,4.3,93,0.29,,,0.33,WSDL version 420,2013-09-11 21:33:00,
2013-09-11 17:38:00,70.0,68.1,29.85,WSW,257,4.3,4.9,94,0.29,,,0.33,WSDL version 420,2013-09-11 21:38:00,
2013-09-11 17:43:00,69.9,68.6,29.85,South,186,1.2,4.9,96,0.29,,,0.33,WSDL version 420,2013-09-11 21:43:00,
2013-09-11 17:48:00,69.8,68.8,29.85,SSW,195,2.1,3.8,97,0.29,,,0.33,WSDL version 420,2013-09-11 21:48:00,
2013-09-11 17:53:00,69.8,68.9,29.85,South,183,1.6,3.8,98,0.29,,,0.33,WSDL version 420,2013-09-11 21:53:00,
2013-09-11 17:58:00,69.8,69.1,29.85,NNE,23,1.3,3.4,98,0.29,,,0.33,WSDL version 420,2013-09-11 21:58:00,
2013-09-11 18:03:00,69.8,69.1,29.88,WSW,253,2.6,3.4,98,0.29,,,0.33,WSDL version 420,2013-09-11 22:03:00,
2013-09-11 18:08:00,69.8,69.1,29.88,NNE,32,2.5,5.6,98,0.29,,,0.33,WSDL version 420,2013-09-11 22:08:00,
2013-09-11 18:13:00,69.5,69.0,29.88,NNW,333,9.8,11.0,98,0.25,,,0.58,WSDL version 420,2013-09-11 22:13:00,
2013-09-11 18:18:00,68.0,66.2,29.91,ENE,64,4.8,12.1,93,0.46,,,0.79,WSDL version 420,2013-09-11 22:18:00,
2013-09-11 18:23:00,67.4,65.6,29.91,West,274,4.8,12.1,94,0.50,,,0.83,WSDL version 420,2013-09-11 22:23:00,
2013-09-11 18:28:00,67.1,65.5,29.91,SW,225,2.5,7.4,94,0.50,,,0.83,WSDL version 420,2013-09-11 22:28:00,
2013-09-11 18:33:00,66.8,65.7,29.88,SW,233,2.5,6.3,97,0.50,,,0.83,WSDL version 420,2013-09-11 22:33:00,
2013-09-11 18:38:00,66.9,66.3,29.88,SSE,151,2.7,5.8,98,0.50,,,0.83,WSDL version 420,2013-09-11 22:38:00,
2013-09-11 18:43:00,67.3,66.9,29.88,SSE,155,3.2,6.0,99,0.50,,,0.83,WSDL version 420,2013-09-11 22:43:00,
2013-09-11 18:48:00,67.8,67.6,29.88,ESE,116,4.2,6.0,99,0.50,,,0.83,WSDL version 420,2013-09-11 22:48:00,
2013-09-11 18:53:00,68.4,68.3,29.88,East,86,3.5,7.4,100,-99.99,,,-99.99,WSDL version 420,2013-09-11 22:53:00,
2013-09-11 18:58:00,68.7,68.6,29.88,South,173,3.1,7.4,99,0.50,,,0.83,WSDL version 420,2013-09-11 22:58:00,
2013-09-11 19:03:00,68.7,68.4,29.88,West,263,1.5,6.0,99,0.50,,,0.83,WSDL version 420,2013-09-11 23:03:00,
2013-09-11 19:08:00,68.5,68.1,29.88,SE,132,2.4,4.3,99,0.50,,,0.83,WSDL version 420,2013-09-11 23:08:00,
2013-09-11 19:13:00,68.4,68.0,29.88,East,86,2.7,3.8,99,0.25,,,0.83,WSDL version 420,2013-09-11 23:13:00,
2013-09-11 19:18:00,68.1,67.8,29.91,WNW,293,1.5,3.8,99,0.04,,,0.83,WSDL version 420,2013-09-11 23:18:00,
2013-09-11 19:23:00,67.9,67.5,29.91,West,270,0.0,2.9,99,0.00,,,0.83,WSDL version 420,2013-09-11 23:23:00,
2013-09-11 19:28:00,67.6,67.3,29.91,West,274,1.9,5.4,99,0.00,,,0.83,WSDL version 420,2013-09-11 23:28:00,
2013-09-11 19:33:00,67.5,67.2,29.91,NNW,338,5.6,12.5,99,0.00,,,0.83,WSDL version 420,2013-09-11 23:33:00,
2013-09-11 19:38:00,67.8,67.8,29.91,WSW,251,2.2,12.5,100,0.00,,,0.83,WSDL version 420,2013-09-11 23:38:00,
2013-09-11 19:43:00,67.8,67.8,29.91,West,267,2.7,4.9,100,0.00,,,0.83,WSDL version 420,2013-09-11 23:43:00,
2013-09-11 19:48:00,67.8,67.8,29.91,South,170,3.0,4.9,100,0.00,,,0.83,WSDL version 420,2013-09-11 23:48:00,
2013-09-11 19:53:00,67.8,67.8,29.91,SSW,196,0.7,3.6,100,0.00,,,0.83,WSDL version 420,2013-09-11 23:53:00,
2013-09-11 19:58:00,67.8,67.8,29.91,SSW,203,0.0,3.1,100,0.00,,,0.83,WSDL version 420,2013-09-11 23:58:00,
2013-09-11 20:03:00,67.8,67.8,29.88,SSW,203,1.5,2.0,100,0.00,,,0.83,WSDL version 420,2013-09-12 00:03:00,
2013-09-11 20:08:00,67.6,67.6,29.88,SW,214,1.9,2.9,100,-99.99,,,-99.99,WSDL version 420,2013-09-12 00:08:00,
2013-09-11 20:13:00,67.6,67.6,29.88,SSW,209,0.6,2.9,100,0.00,,,0.83,WSDL version 420,2013-09-12 00:13:00,
2013-09-11 20:18:00,67.6,67.6,29.91,SW,225,1.0,2.0,100,0.00,,,0.83,WSDL version 420,2013-09-12 00:18:00,
2013-09-11 20:23:00,67.6,67.6,29.91,South,188,1.0,2.7,100,0.00,,,0.83,WSDL version 420,2013-09-12 00:23:00,
2013-09-11 20:28:00,67.6,67.6,29.91,SW,225,0.7,2.7,100,0.00,,,0.83,WSDL version 420,2013-09-12 00:28:00,
2013-09-11 20:33:00,67.6,67.6,29.91,SW,225,1.2,2.2,100,0.00,,,0.83,WSDL version 420,2013-09-12 00:33:00,
2013-09-11 20:38:00,67.5,67.5,29.91,West,260,2.7,3.1,100,0.00,,,0.83,WSDL version 420,2013-09-12 00:38:00,
2013-09-11 20:43:00,67.5,67.5,29.91,SSW,203,0.1,3.1,100,0.00,,,0.83,WSDL version 420,2013-09-12 00:43:00,
2013-09-11 20:49:00,67.3,67.3,29.91,SSW,203,1.3,3.1,100,0.00,,,0.83,WSDL version 420,2013-09-12 00:49:00,
2013-09-11 20:56:00,67.3,67.3,29.91,SW,236,1.5,3.6,100,0.00,,,0.83,WSDL version 420,2013-09-12 00:56:00,
2013-09-11 21:01:00,67.3,67.3,29.91,WSW,248,1.2,3.4,100,0.00,,,0.83,WSDL version 420,2013-09-12 01:01:00,
2013-09-11 21:06:00,67.5,67.5,29.91,SW,221,1.1,2.5,100,0.00,,,0.83,WSDL version 420,2013-09-12 01:06:00,
2013-09-11 21:11:00,67.4,67.4,29.91,ESE,122,3.1,3.6,100,0.00,,,0.83,WSDL version 420,2013-09-12 01:11:00,
2013-09-11 21:16:00,67.5,67.5,29.91,East,96,2.8,4.9,100,0.00,,,0.83,WSDL version 420,2013-09-12 01:16:00,
2013-09-11 21:21:00,67.5,67.5,29.91,SSE,167,0.6,4.9,100,0.00,,,0.83,WSDL version 420,2013-09-12 01:21:00,
2013-09-11 21:26:00,67.4,67.4,29.91,SW,219,0.3,2.7,100,0.00,,,0.83,WSDL version 420,2013-09-12 01:26:00,
2013-09-11 21:31:00,67.3,67.3,29.91,South,186,1.4,2.9,100,0.00,,,0.83,WSDL version 420,2013-09-12 01:31:00,
2013-09-11 21:36:00,67.3,67.3,29.91,ENE,64,2.7,4.7,100,0.00,,,0.83,WSDL version 420,2013-09-12 01:36:00,
2013-09-11 21:41:00,67.5,67.5,29.91,East,100,5.4,13.2,100,0.00,,,0.83,WSDL version 420,2013-09-12 01:41:00,
2013-09-11 21:46:00,67.5,67.5,29.91,SE,135,4.3,13.2,100,0.00,,,0.83,WSDL version 420,2013-09-12 01:46:00,
2013-09-11 21:51:00,67.5,67.5,29.91,ESE,116,5.5,11.0,100,0.00,,,0.83,WSDL version 420,2013-09-12 01:51:00,
2013-09-11 21:56:00,67.5,67.5,29.91,SSE,148,7.3,15.2,100,0.00,,,0.83,WSDL version 420,2013-09-12 01:56:00,
2013-09-11 22:01:00,67.5,67.4,29.91,ESE,109,4.1,15.2,99,0.00,,,0.83,WSDL version 420,2013-09-12 02:01:00,
2013-09-11 22:06:00,67.3,67.0,29.91,ESE,113,4.3,7.6,99,0.00,,,0.83,WSDL version 420,2013-09-12 02:06:00,
2013-09-11 22:11:00,67.1,66.8,29.91,SSE,152,3.2,8.7,99,0.00,,,0.83,WSDL version 420,2013-09-12 02:11:00,
2013-09-11 22:16:00,67.1,66.8,29.91,East,101,4.6,10.1,99,0.00,,,0.83,WSDL version 420,2013-09-12 02:16:00,
2013-09-11 22:21:00,66.9,66.7,29.91,ESE,120,5.0,10.1,100,0.00,,,0.83,WSDL version 420,2013-09-12 02:21:00,
2013-09-11 22:26:00,66.9,66.9,29.91,SE,124,4.0,6.5,100,0.00,,,0.83,WSDL version 420,2013-09-12 02:26:00,
2013-09-11 22:31:00,66.9,66.9,29.91,ESE,104,3.4,6.3,100,0.00,,,0.83,WSDL version 420,2013-09-12 02:31:00,
2013-09-11 22:36:00,66.9,66.9,29.91,ENE,68,3.9,6.3,100,0.00,,,0.83,WSDL version 420,2013-09-12 02:36:00,
2013-09-11 22:41:00,66.7,66.7,29.91,NW,305,2.0,5.8,100,0.00,,,0.83,WSDL version 420,2013-09-12 02:41:00,
2013-09-11 22:46:00,66.6,66.6,29.97,NW,315,3.4,5.6,100,0.00,,,0.83,WSDL version 420,2013-09-12 02:46:00,
2013-09-11 22:51:00,66.6,66.6,29.97,WSW,244,2.2,5.6,100,0.00,,,0.83,WSDL version 420,2013-09-12 02:51:00,
2013-09-11 22:56:00,66.6,66.6,29.97,WSW,248,1.5,3.8,100,0.00,,,0.83,WSDL version 420,2013-09-12 02:56:00,
2013-09-11 23:01:00,66.4,66.4,29.97,SSW,196,1.3,2.9,100,0.00,,,0.83,WSDL version 420,2013-09-12 03:01:00,
2013-09-11 23:06:00,66.4,66.4,29.97,SSW,203,0.7,2.9,100,0.00,,,0.83,WSDL version 420,2013-09-12 03:06:00,
2013-09-11 23:11:00,66.4,66.4,29.97,West,270,1.7,3.1,100,0.00,,,0.83,WSDL version 420,2013-09-12 03:11:00,
2013-09-11 23:16:00,66.3,66.3,29.97,SSW,203,0.7,3.1,100,0.00,,,0.83,WSDL version 420,2013-09-12 03:16:00,
2013-09-11 23:21:00,66.2,66.2,29.97,NNE,23,1.2,2.2,100,0.00,,,0.83,WSDL version 420,2013-09-12 03:21:00,
2013-09-11 23:26:00,66.2,66.2,29.97,WSW,248,0.3,2.2,100,0.00,,,0.83,WSDL version 420,2013-09-12 03:26:00,
2013-09-11 23:31:00,66.2,66.2,29.94,South,180,1.4,3.1,100,0.00,,,0.83,WSDL version 420,2013-09-12 03:31:00,
2013-09-11 23:36:00,66.2,66.2,29.94,South,173,1.5,3.4,100,0.00,,,0.83,WSDL version 420,2013-09-12 03:36:00,
2013-09-11 23:41:00,66.2,66.2,29.94,West,264,0.0,3.4,100,0.00,,,0.83,WSDL version 420,2013-09-12 03:41:00,
2013-09-11 23:46:00,66.2,66.2,29.94,ESE,120,0.6,3.6,100,0.00,,,0.83,WSDL version 420,2013-09-12 03:46:00,
2013-09-11 23:51:00,66.2,66.2,29.94,ESE,113,1.1,3.6,100,-99.99,,,-99.99,WSDL version 420,2013-09-12 03:51:00,
2013-09-11 23:56:00,66.2,66.2,29.94,SE,137,1.5,3.4,100,0.00,,,0.83,WSDL version 420,2013-09-12 03:56:00,